This demonstration page uses our WeatherBlox Daily Observations layout. Learn more.

Left ArrowRight Arrow

Hourly Observations for January 1, 2021

Temp ( °F °C ) Dew Point ( °F °C ) Humidity (%) Winds ( mph kmh ) Pressure ( in mb ) Visibility ( mi km ) Precip ( " mm )
12:53 am 00:53 Clear with Mist and Fog 40 4.4 39 3.9 97 97 E 6 9 30.16 1021 2 3 0.00 0.00
1:53 am 01:53 Clear with Mist and Fog 39 3.9 38 3.3 96 96 ESE 7 11 30.16 1022 2 3 0.00 0.00
2:25 am 02:25 Clear with Mist and Fog 40 4.4 39 3.9 97 97 ESE 5 7 30.18 1022 2 3 0.00 0.00
2:44 am 02:44 Partly Cloudy with Mist and Fog 38 3.3 37 2.8 97 97 ESE 5 7 30.18 1022 1 2 0.00 0.00
2:53 am 02:53 Mostly Cloudy with Mist and Fog 40 4.4 39 3.9 97 97 ESE 5 7 30.18 1022 1 2 0.00 0.00
3:23 am 03:23 Cloudy with Mist and Fog 42 5.6 41 5 96 96 ESE 6 9 30.18 1022 2 3 0.00 0.00
3:53 am 03:53 Cloudy with Mist and Fog 44 6.7 42 5.6 93 93 ESE 3 6 30.16 1022 3 4 0.00 0.00
4:53 am 04:53 Mostly Clear with Mist and Fog 40 4.4 39 3.9 97 97 E 6 9 30.16 1022 2 3 0.00 0.00
5:53 am 05:53 Mostly Cloudy with Mist and Fog 41 5 40 4.4 96 96 E 5 7 30.18 1022 3 4 0.00 0.00
6:53 am 06:53 Clear with Mist and Fog 39 3.9 38 3.3 96 96 E 8 13 30.17 1022 3 4 0.00 0.00
7:21 am 07:21 Sunny with Mist and Fog 39 3.9 38 3.3 96 96 SE 6 9 30.19 1022 2 2 0.00 0.00
7:53 am 07:53 Sunny with Mist and Fog 41 5 39 3.9 93 93 SE 7 11 30.18 1022 2 2 0.00 0.00
8:49 am 08:49 Partly Cloudy with Mist and Fog 45 7 43 6 93 93 SSE 6 9 30.23 1024 2 3 0.00 0.00
8:53 am 08:53 Partly Cloudy with Mist and Fog 45 7.2 43 6.1 93 93 SSE 6 9 30.22 1023 2 3 0.00 0.00
9:27 am 09:27 Sunny with Mist and Fog 47 8.3 44 6.7 90 90 SSE 6 9 30.24 1024 3 5 0.00 0.00
9:53 am 09:53 Hazy 49 9.4 44 6.7 83 83 SSE 7 11 30.24 1024 4 6 0.00 0.00
10:53 am 10:53 Hazy 53 11.7 44 6.7 72 72 VRB 7 11 30.23 1024 6 10 0.00 0.00
11:53 am 11:53 Sunny 54 12.2 41 5 62 62 SSE 5 7 30.21 1023 10 16 0.00 0.00
12:53 pm 12:53 Sunny 57 13.9 41 5 55 55 SSE 7 11 30.19 1023 10 16 0.00 0.00
1:53 pm 13:53 Sunny 56 13.3 41 5 57 57 VRB 3 6 30.18 1022 10 16 0.00 0.00
2:53 pm 14:53 Sunny 56 13.3 40 4.4 55 55 SSE 7 11 30.17 1022 10 16 0.00 0.00
3:53 pm 15:53 Sunny 55 12.8 40 4.4 57 57 S 5 7 30.19 1022 10 16 0.00 0.00
4:53 pm 16:53 Sunny 50 10 40 4.4 68 68 SE 6 9 30.18 1022 10 16 0.00 0.00
5:53 pm 17:53 Clear 47 8.3 40 4.4 77 77 Calm 30.20 1023 10 16 0.00 0.00
6:53 pm 18:53 Clear 44 6.7 39 3.9 83 83 Calm 30.23 1024 9 14 0.00 0.00
7:53 pm 19:53 Clear 43 6.1 39 3.9 86 86 NE 8 13 30.24 1024 7 11 0.00 0.00
8:53 pm 20:53 Clear with Mist and Fog 42 5.6 39 3.9 89 89 E 3 6 30.23 1024 6 10 0.00 0.00
9:53 pm 21:53 Clear 41 5 38 3.3 89 89 Calm 30.24 1024 7 11 0.00 0.00
10:53 pm 22:53 Clear with Mist and Fog 39 3.9 37 2.8 93 93 Calm 30.25 1024 5 8 0.00 0.00
11:53 pm 23:53 Clear with Mist and Fog 39 3.9 37 2.8 93 93 E 6 9 30.25 1024 5 8 0.00 0.00

Powered by Vaisala Xweather